Location: Blackwall
(51.5097°N, 0.0016°W)
Time: 03:37:53
(UTC+00:00)

Cosmos 1937 Rocket - Pass Details

Date: 15 May 2026
Orbit: 743 x 774 km, 74.0° (Epoch: 8 June)

Event Time Altitude Azimuth Distance (km) Brightness Sun altitude
Rises 22:19:45 0° 337° (NNW) 3,209 8.6 -16.3°
Reaches altitude 10° 22:22:13 10° 343° (NNW) 2,277 7.3 -16.5°
Maximum altitude 22:27:11 47° 58° (ENE) 983 4.1 -16.8°
Enters shadow 22:30:09 23° 122° (ESE) 1,568 4.7 -17.0°
